sat.trackr.live / text

‹ back to catalog

STARLINK-31746

NORAD 59613 · 2024-080N

PAYLOAD ACTIVE UNKNOWN

§ Identity

Operator
Country
US
Launch date
2024-04-28
Launch site
AFETR
Launch vehicle
Mass (kg)
RCS (m²)

Purposes: comms

External: N2YO · Heavens-Above · Gunter

§ Orbital elements

Epoch: 2026-09-20T15:37:18.357888Z

Period
94.27 min
Inclination
43.0137°
Eccentricity
0.0004927
Mean motion
15.27574016 rev/d
Perigee alt
479.7 km
Apogee alt
486.4 km
Semi-major
6,861.2 km
B*
-4.0282e-5
RAAN
20.8025°
Arg perigee
274.9132°
Mean anomaly
85.1157°
Rev number
13,430

§ Raw data

STARLINK-317461 59613U 24080N   26263.65090692 -.00001372  00000+0 -40282-4 0  99982 59613  43.0137  20.8025 0004927 274.9132  85.1157 15.27574016134307

JSON: /api/v1/satellites/59613 · /tle

For live sub-satellite position, see the globe view (requires WebGL).

§ Visibility from observer

Set your observer location to see the next 7 days of passes ≥ 10°. The values pass through the URL so the page stays shareable.

No JS? Fill the form by hand. The geolocation button needs JavaScript.